STARLINK-32547, 61919

Orbit data source: Space-Track

STARLINK-32547, 61919 is a payload satellite owned by SpaceX/Seattle (US) in LEO that was launched on Mon, 11 Nov 2024 UTC via an FALCON 9 launch vehicle from the Air Force Eastern Test Range (AFETR). Payload-class satellites include a variety of spacecraft equipped with specific instruments for various scientific and technological missions. These include communications satellites like Starlink; space stations such as the ISS; scientific satellites like the Hubble; Earth observation satellites from companies like Planet Labs, Umbra, and HawkEye 360; GPS; miniature CubeSats for education and research; and military/defense satellites.

Loading next visibility...
Identifier
61919, 2024-207H
Orbit
LEO
Country
Flag of USUS
Related business
Manufacturer
SpaceX/Seattle
Mission
Operational Commercial Communications
Bus & Motor
STARLINK V2M, Unknown motor
Mass
730 kg wet, ~700 kg dry
Launch date (UTC)
2024-11-11 (2 years ago)
Launch vehicle
FALCON 9
Launch site
Air Force Eastern Test Range (AFETR)
Object type
Payload
Rocket body
Debris
Shape & HBR
Box + 2 Pan, 17.7 m
Radar Cross Section
33.884 m², Large (>1 m²)

Expand to show TLE details & history
Last TLE update: 2 days ago

TLE from 2 days ago
0 STARLINK-32547
1 61919U 24207H   26262.08240441  .00015223  00000-0  56134-3 0  9997
2 61919  43.0005 269.1603 0001181 242.5063 117.5669 15.27593341104291
Epoch: 2026-09-19T01:58Z
TLE epoch observation values (Epoch: 2026-09-19T01:58:39.741Z)
Latitude
0.00002°
Longitude
-118.50131°
Altitude
483.16 km
Speed
7.625 km/s
True Right ascension
17h 56m 38s
True Declination
0° 00' 00"
Sunlit
Object was in daylight at epoch
Visualization orbit readout
Latitude
Unknown
Longitude
Unknown
Altitude
Unknown
Speed
Unknown
Apparent Right ascension
Unknown
Apparent Declination
Unknown
Sunlit
N/A
Visualization observer readout
Local Sidereal Time
08:29:42
Azimuth
Unknown
Elevation
Unknown
Doppler factor
Unknown
Orbital elements
Apogee altitude
485.765 km
Perigee altitude
484.144 km
Semi-major axis
6,863.091 km
Eccentricity
0.00012
Inclination
43.0005°
RAAN
269.1603°
Arg. of periapsis
242.5063°
True anomaly
117.5789°
Mean anomaly
117.5669°
Eccentric anomaly
117.5729°
Mean motion
3.81736 °/min
Orbital period
94.31 mins
BSTAR
0.00056134
Loading maneuver chart data...
Computing Atmospheric mass density...
Loading historical data...
Loading historical data...
Loading historical data...
Loading historical data...
Loading historical data...
Loading historical data...
Loading historical data...

Documentation

Showing up to 5 results
|